Content
SEND FEEDBACK

Daily
Averages
Monthly
Summary
United States of America

ROME, GEORGIA


Home > North America > United States > Georgia
Elevation: 644 feet     Latitude: 34 20N     Longitude: 085 09W

WEATHER
 
SELECT A DAY
Number of Records: 210,992;   Date Range: 1/1/95 - 9/21/14
 
SHARE

PRINT THIS DATA

[ ← Previous Day ]
WEATHER ALMANAC - JULY 2, 2014
[ Next Day → ]
[ °C ]   °F
Weather ElementAverageHighLow
Temperature80.3 °F91.9 °F (2:53 pm)71.1 °F (6:53 am)
Dewpoint71.6 °F73.9 °F (1:43 am)68 °F (10:53 am)
Humidity77.7 %100 % (1:43 am)47 % (5:53 pm)
Barometer29.95 in29.97 in (1:43 am)29.91 in (4:53 am)
Wind Speed2.6 mph9.2 mph (2:53 pm)
Weather ElementAverage
Visibility7.7 mi
Wind DirectionESE (128.9 °)

Weather ElementTotal
Precipitation---
Cooling Degree Days16.5 (Base 65)
Growing Degree Days31.5 (Base 50)
Averaged from 27 records on July 2, 2014
WEATHER CONDITIONS BREAKOUT
WIND DIRECTION BREAKOUT
WEATHER BY HOUR - JULY 2, 2014
[ °C ]   °F
Local TimeTemperatureDewpointHumidityBarometerVisibilityWind DirectionWind SpeedGust SpeedPrecipitationEventsConditions
1:43 AM73.9 °F73.9 °F100 %29.97 in1.5 miCalmPartly Cloudy
1:53 AM73.0 °F73.0 °F100 %29.94 in1.5 miCalmPartly Cloudy
1:59 AM73.0 °F73.0 °F100 %29.97 in3.0 miNW (310°)3.5 mphClear
2:53 AM73.0 °F72.0 °F96 %29.94 in7.0 miCalmClear
3:53 AM72.0 °F72.0 °F100 %29.93 in5.0 miCalmClear
4:09 AM72.0 °F72.0 °F100 %29.95 in2.5 miCalmClear
4:17 AM72.0 °F71.1 °F97 %29.95 in6.0 miSSW (200°)4.6 mphClear
4:53 AM72.0 °F72.0 °F100 %29.91 in5.0 miSW (220°)3.5 mphClear
5:53 AM73.0 °F72.0 °F96 %29.92 in6.0 miCalmClear
6:53 AM71.1 °F70.0 °F96 %29.95 in6.0 miCalmClear
7:53 AM75.9 °F73.0 °F91 %29.94 in6.0 miCalmClear
8:53 AM79.0 °F73.9 °F84 %29.96 in8.0 miWest (280°)3.5 mphClear
9:53 AM82.9 °F72.0 °F69 %29.96 in10.0 miNW (310°)4.6 mphClear
10:53 AM86.0 °F68.0 °F55 %29.95 in10.0 miCalmClear
11:53 AM88.0 °F71.1 °F57 %29.96 in10.0 miWNW (290°)8.1 mphClear
12:53 PM88.0 °F70.0 °F55 %29.96 in10.0 miCalmClear
1:53 PM90.0 °F70.0 °F52 %29.95 in10.0 miVariable3.5 mphClear
2:53 PM91.9 °F71.1 °F50 %29.95 in10.0 miWNW (300°)9.2 mphClear
3:53 PM91.0 °F73.0 °F55 %29.95 in10.0 miSW (220°)6.9 mphScattered Clouds
4:53 PM91.4 °F69.8 °F49 %29.97 in10.0 miWSW (250°)6.9 mphClear
5:53 PM91.9 °F69.1 °F47 %29.93 in10.0 miWest (260°)3.5 mphClear
6:53 PM89.6 °F69.8 °F52 %29.96 in10.0 miWest (280°)5.8 mphClear
7:53 PM86.0 °F71.1 °F61 %29.92 in10.0 miWest (280°)3.5 mphClear
8:53 PM80.1 °F73.0 °F79 %29.93 in10.0 miCalmClear
9:53 PM79.0 °F73.0 °F82 %29.95 in10.0 miWest (280°)3.5 mphClear
10:53 PM78.1 °F73.0 °F84 %29.97 in10.0 miCalmClear
11:53 PM75.0 °F72.0 °F90 %29.97 in10.0 miCalmClear
Hourly data recorded from KRMG, located miles away from Rome, Georgia







STORIES FROM OUR PARTNERS